Tracking 32936 objects as of 16-Jan-2026
HD Live streaming from Space Station
objects crossing your sky now

FENGYUN 1C DEB

Track FENGYUN 1C DEB now!
10-day predictions


NORAD ID: 31988
Int'l Code: 1999-025CPR
Perigee: 785.2 km
Apogee: 875.1 km
Inclination: 98.1 °
Period: 101.4 minutes
Semi major axis: 7201 km
RCS: 0.0166 m2 (small)
Launch date: May 10, 1999
Source: People's Republic of China (PRC)
Launch site: Taiyaun Space Center, China (TSC)

Note: This is SATELLITE DEBRIS
Your satellite tracking list
Your tracking list is empty




NASA's NSSDC Master Catalog

Two Line Element Set (TLE):
1 31988U 99025CPR 26007.43152597  .00004005  00000-0  18397-2 0  9994
2 31988  98.1335  79.6631 0062385 213.4467 146.2765 14.20689257645171
Source of the keplerian elements: AFSPC